This demonstration page uses our WeatherBlox Daily Observations layout. Learn more.

Left ArrowRight Arrow

34.16533, -84.80231

Hourly Observations for December 2, 2017

Temp ( °F °C ) Dew Point ( °F °C ) Humidity (%) Winds ( mph kmh ) Pressure ( in mb ) Visibility ( mi km ) Precip ( " mm )
12:42 am 00:42 Mostly Clear with Mist and Fog 45 7.2 45 7.2 100 100 Calm 30.15 1021 4 6 0.00 0.00
12:53 am 00:53 Mostly Clear with Mist and Fog 45 7.2 45 7.2 100 100 Calm 30.15 1021 4 6 0.00 0.00
1:53 am 01:53 Mostly Cloudy with Mist and Fog 43 6.1 43 6.1 100 100 Calm 30.13 1020 5 8 0.00 0.00
2:53 am 02:53 Cloudy with Mist and Fog 44 6.7 44 6.7 100 100 Calm 30.14 1021 4 6 0.00 0.00
3:12 am 03:12 Cloudy with Mist and Fog 43 6.1 43 6.1 100 100 Calm 30.15 1021 2 2 0.00 0.00
3:21 am 03:21 Cloudy with Mist and Fog 44 6.7 44 6.7 100 100 Calm 30.15 1021 1 1 0.00 0.00
3:50 am 03:50 Mostly Cloudy with Mist and Fog 45 7 45 7 100 100 Calm 30.15 1021 1 2 0.00 0.00
3:53 am 03:53 Mostly Cloudy with Mist and Fog 44 6.7 44 6.7 100 100 Calm 30.14 1021 1 1 0.00 0.00
4:13 am 04:13 Mostly Cloudy with Light Rain 44 6.7 44 6.7 100 100 Calm 30.15 1021 0 0 0.00 0.03
4:26 am 04:26 Mostly Cloudy with Light Rain 44 6.7 44 6.7 100 100 Calm 30.15 1021 1 1 0.00 0.03
4:53 am 04:53 Mostly Cloudy with Fog 43 6.1 43 6.1 100 100 Calm 30.15 1021 1 1 0.00 0.03
5:03 am 05:03 Cloudy with Mist and Fog 44 6.7 44 6.7 100 100 Calm 30.18 1022 2 3 0.00 0.00
5:15 am 05:15 Cloudy with Light Rain 44 6.7 44 6.7 100 100 Calm 30.18 1022 1 1 0.00 0.03
5:30 am 05:30 Mostly Cloudy with Light Rain 44 6.7 44 6.7 100 100 Calm 30.18 1022 1 2 0.00 0.03
5:38 am 05:38 Mostly Cloudy with Light Rain 44 6.7 44 6.7 100 100 Calm 30.18 1022 1 1 0.00 0.03
5:53 am 05:53 Mostly Cloudy with Light Rain 44 6.7 44 6.7 100 100 Calm 30.16 1022 1 1 0.00 0.03
6:12 am 06:12 Mostly Cloudy with Light Rain 44 6.7 44 6.7 100 100 Calm 30.18 1022 0 0 0.00 0.03
6:53 am 06:53 Mostly Cloudy with Fog 44 6.7 44 6.7 100 100 Calm 30.18 1022 1 1 0.00 0.03
7:39 am 07:39 Cloudy with Light Rain 44 6.7 44 6.7 100 100 Calm 30.21 1023 2 2 0.00 0.03
7:53 am 07:53 Cloudy with Light Rain 44 6.7 44 6.7 100 100 Calm 30.19 1022 2 2 0.00 0.03
8:02 am 08:02 Cloudy with Mist and Fog 44 6.7 44 6.7 100 100 Calm 30.21 1023 3 4 0.00 0.03
8:27 am 08:27 Cloudy with Mist and Fog 45 7.2 45 7.2 100 100 Calm 30.21 1023 4 6 0.00 0.03
8:53 am 08:53 Cloudy with Mist and Fog 46 7.8 46 7.8 100 100 Calm 30.20 1023 4 6 0.00 0.03
9:41 am 09:41 Partly Cloudy with Mist and Fog 49 9.4 49 9.4 100 100 Calm 30.21 1023 5 8 0.00 0.00
9:53 am 09:53 Partly Cloudy with Mist and Fog 50 10 50 10 100 100 Calm 30.20 1023 5 8 0.00 0.00
10:53 am 10:53 Mostly Sunny 57 13.9 53 11.7 87 87 ENE 5 7 30.18 1022 10 16 0.00 0.00
11:53 am 11:53 Sunny 62 16.7 55 12.8 78 78 NE 3 6 30.14 1021 10 16 0.00 0.00
12:53 pm 12:53 Cloudy 63 17.2 55 12.8 76 76 N 5 7 30.14 1021 9 14 0.00 0.00
1:53 pm 13:53 Cloudy 65 18.3 54 12.2 68 68 VRB 3 6 30.11 1020 10 16 0.00 0.00
2:53 pm 14:53 Mostly Sunny 66 18.9 54 12.2 65 65 Calm 30.11 1020 10 16 0.00 0.00
3:53 pm 15:53 Sunny 65 18.3 53 11.7 66 66 Calm 30.10 1019 10 16 0.00 0.00
4:53 pm 16:53 Mostly Cloudy 59 15 55 12.8 87 87 Calm 30.11 1020 10 16 0.00 0.00
5:53 pm 17:53 Clear 55 12.8 54 12.2 96 96 Calm 30.12 1020 10 16 0.00 0.00
6:53 pm 18:53 Clear 52 11.1 52 11.1 100 100 Calm 30.13 1020 9 14 0.00 0.00
7:53 pm 19:53 Partly Cloudy 50 10 50 10 100 100 Calm 30.15 1021 8 13 0.00 0.00
8:53 pm 20:53 Mostly Cloudy with Mist and Fog 52 11.1 52 11.1 100 100 Calm 30.15 1021 6 10 0.00 0.00
9:53 pm 21:53 Cloudy with Mist and Fog 50 10 50 10 100 100 Calm 30.17 1022 6 10 0.00 0.00
10:53 pm 22:53 Mostly Cloudy with Mist and Fog 48 8.9 48 8.9 100 100 Calm 30.18 1022 4 6 0.00 0.00
11:06 pm 23:06 Mostly Cloudy with Mist and Fog 48 8.9 48 8.9 100 100 Calm 30.18 1022 3 4 0.00 0.00
11:14 pm 23:14 Partly Cloudy with Mist and Fog 47 8.3 47 8.3 100 100 Calm 30.18 1022 4 6 0.00 0.00
11:53 pm 23:53 Clear with Mist and Fog 47 8.3 47 8.3 100 100 Calm 30.17 1022 3 5 0.00 0.00

Powered by AerisWeather